owner,sensor,date,latitude,longitude,vertical_datum,wind_speed,wind_to_direction,wind_speed_of_gust,qcFlag 
TABS,ioos:station:wmo:42043:1,2006-06-15T19:30:00Z,28.9818,-94.9186,4.0,3.171513834,148.0140517,7.45,'11111222,11111222,11111222' 
TABS,ioos:station:wmo:42043:1,2006-06-15T20:00:00Z,28.9818,-94.9186,4.0,6.279721331,152.4967015,7.68,'11111222,11111222,11111222' 
TABS,ioos:station:wmo:42043:1,2006-06-15T20:30:00Z,28.9818,-94.9186,4.0,5.7644861,158.9556125,6.81,'11111222,11111222,11111222' 
TABS,ioos:station:wmo:42043:1,2006-06-15T21:00:00Z,28.9818,-94.9186,4.0,6.065311204,158.93562,7.19,'11111222,11111222,11111222' 
TABS,ioos:station:wmo:42043:1,2006-06-15T21:30:00Z,28.9818,-94.9186,4.0,5.885201781,156.5715724,7.52,'11111222,11111222,11111222' 
TABS,ioos:station:wmo:42043:1,2006-06-15T22:00:00Z,28.9818,-94.9186,4.0,6.04073671,151.5260734,7.4,'11111222,11111222,11111222' 
TABS,ioos:station:wmo:42043:1,2006-06-15T22:30:00Z,28.9818,-94.9186,4.0,6.130685117,159.1707539,7.86,'11111222,11111222,11111222' 
TABS,ioos:station:wmo:42043:1,2006-06-15T23:00:00Z,28.9818,-94.9186,4.0,6.433078579,149.4489379,8.04,'11111222,11111222,11111222' 
TABS,ioos:station:wmo:42043:1,2006-06-15T23:30:00Z,28.9818,-94.9186,4.0,5.631518445,150.8863825,7.01,'11111222,11111222,11111222' 
TABS,ioos:station:wmo:42043:1,2006-06-16T00:00:00Z,28.9818,-94.9186,4.0,6.307852249,149.4103915,7.62,'11111222,11111222,11111222' 
TABS,ioos:station:wmo:42043:1,2006-06-16T00:30:00Z,28.9818,-94.9186,4.0,6.500007692,152.0159362,8.5,'11111222,11111222,11111222' 
TABS,ioos:station:wmo:42043:1,2006-06-16T01:00:00Z,28.9818,-94.9186,4.0,6.396905502,148.9443618,9.19,'11111222,11111222,11111222' 
TABS,ioos:station:wmo:42043:1,2006-06-16T01:30:00Z,28.9818,-94.9186,4.0,8.13006765,160.0051087,10.03,'11111222,11111222,11111222' 
TABS,ioos:station:wmo:42043:1,2006-06-16T02:00:00Z,28.9818,-94.9186,4.0,7.81727574,161.8897912,9.96,'11111222,11111222,11111222' 
TABS,ioos:station:wmo:42043:1,2006-06-16T02:30:00Z,28.9818,-94.9186,4.0,8.164686154,166.8320492,10.66,'11111222,11111222,11111222' 
TABS,ioos:station:wmo:42043:1,2006-06-16T03:00:00Z,28.9818,-94.9186,4.0,6.707875968,173.1506685,8.7,'11111222,11111222,11111222' 
TABS,ioos:station:wmo:42043:1,2006-06-16T03:30:00Z,28.9818,-94.9186,4.0,7.085936776,169.1818963,8.77,'11111222,11111222,11111222' 
TABS,ioos:station:wmo:42043:1,2006-06-16T04:00:00Z,28.9818,-94.9186,4.0,6.822558171,170.5517166,9.03,'11111222,11111222,11111222' 
TABS,ioos:station:wmo:42043:1,2006-06-16T04:30:00Z,28.9818,-94.9186,4.0,6.914195543,172.1865449,8.56,'11111222,11111222,11111222' 
TABS,ioos:station:wmo:42043:1,2006-06-16T05:00:00Z,28.9818,-94.9186,4.0,7.514572509,174.5020606,9.43,'11111222,11111222,11111222' 
TABS,ioos:station:wmo:42043:1,2006-06-16T05:30:00Z,28.9818,-94.9186,4.0,7.408063175,174.1895847,9.01,'11111222,11111222,11111222' 
TABS,ioos:station:wmo:42043:1,2006-06-16T06:00:00Z,28.9818,-94.9186,4.0,7.609001249,177.2130178,9.34,'11111222,11111222,11111222' 
TABS,ioos:station:wmo:42043:1,2006-06-16T06:30:00Z,28.9818,-94.9186,4.0,7.242492665,181.5034804,9.43,'11111222,11111222,11111222' 
TABS,ioos:station:wmo:42043:1,2006-06-16T07:00:00Z,28.9818,-94.9186,4.0,8.070415107,175.0243311,10.34,'11111222,11111222,11111222' 
TABS,ioos:station:wmo:42043:1,2006-06-16T07:30:00Z,28.9818,-94.9186,4.0,8.003905297,178.210304,9.88,'11111222,11111222,11111222' 
TABS,ioos:station:wmo:42043:1,2006-06-16T08:00:00Z,28.9818,-94.9186,4.0,7.767245329,175.1998244,10.26,'11111222,11111222,11111222' 
TABS,ioos:station:wmo:42043:1,2006-06-16T08:30:00Z,28.9818,-94.9186,4.0,7.694757956,172.0070214,9.5,'11111222,11111222,11111222' 
TABS,ioos:station:wmo:42043:1,2006-06-16T09:00:00Z,28.9818,-94.9186,4.0,7.734655778,167.4553626,9.87,'11111222,11111222,11111222' 
TABS,ioos:station:wmo:42043:1,2006-06-16T09:30:00Z,28.9818,-94.9186,4.0,8.497958578,168.2539509,11.65,'11111222,11111222,11111222' 
TABS,ioos:station:wmo:42043:1,2006-06-16T10:00:00Z,28.9818,-94.9186,4.0,8.243476208,164.6658804,10.04,'11111222,11111222,11111222' 
TABS,ioos:station:wmo:42043:1,2006-06-16T10:30:00Z,28.9818,-94.9186,4.0,8.668333173,159.8929143,10.84,'11111222,11111222,11111222' 
TABS,ioos:station:wmo:42043:1,2006-06-16T11:00:00Z,28.9818,-94.9186,4.0,7.902537567,161.634087,9.59,'11111222,11111222,11111222' 
TABS,ioos:station:wmo:42043:1,2006-06-16T11:30:00Z,28.9818,-94.9186,4.0,7.207947003,156.1023451,8.87,'11111222,11111222,11111222' 
TABS,ioos:station:wmo:42043:1,2006-06-16T12:00:00Z,28.9818,-94.9186,4.0,7.626440847,156.4268113,10.54,'11111222,11111222,11111222' 
TABS,ioos:station:wmo:42043:1,2006-06-16T12:30:00Z,28.9818,-94.9186,4.0,9.840172763,193.4574116,13.94,'11111222,11111222,11111222' 
TABS,ioos:station:wmo:42043:1,2006-06-16T13:00:00Z,28.9818,-94.9186,4.0,8.044874144,161.7454791,10.45,'11111222,11111222,11111222' 
TABS,ioos:station:wmo:42043:1,2006-06-16T13:30:00Z,28.9818,-94.9186,4.0,4.739546392,174.794849,6.27,'11111222,11111222,11111222' 
TABS,ioos:station:wmo:42043:1,2006-06-16T14:00:00Z,28.9818,-94.9186,4.0,6.520559792,123.9341157,9.26,'11111222,11111222,11111222' 
TABS,ioos:station:wmo:42043:1,2006-06-16T14:30:00Z,28.9818,-94.9186,4.0,3.654654566,120.7758985,5.69,'11111222,11111222,11111222' 
TABS,ioos:station:wmo:42043:1,2006-06-16T15:00:00Z,28.9818,-94.9186,4.0,4.019664165,122.5043339,5.71,'11111222,11111222,11111222' 
TABS,ioos:station:wmo:42043:1,2006-06-16T15:30:00Z,28.9818,-94.9186,4.0,2.927746574,121.7360559,4.71,'11111222,11111222,11111222' 
TABS,ioos:station:wmo:42043:1,2006-06-16T16:00:00Z,28.9818,-94.9186,4.0,4.750378932,90.7241169,6.44,'11111222,11111222,11111222' 
TABS,ioos:station:wmo:42043:1,2006-06-16T16:30:00Z,28.9818,-94.9186,4.0,5.553035206,97.13821838,7.39,'11111222,11111222,11111222' 
TABS,ioos:station:wmo:42043:1,2006-06-16T17:00:00Z,28.9818,-94.9186,4.0,4.164540791,103.4693665,6.19,'11111222,11111222,11111222' 
TABS,ioos:station:wmo:42043:1,2006-06-16T17:30:00Z,28.9818,-94.9186,4.0,7.975343253,95.39646757,9.95,'11111222,11111222,11111222' 
TABS,ioos:station:wmo:42043:1,2006-06-16T18:00:00Z,28.9818,-94.9186,4.0,8.394343333,91.8436256,10.51,'11111222,11111222,11111222' 
TABS,ioos:station:wmo:42043:1,2006-06-16T18:30:00Z,28.9818,-94.9186,4.0,5.293410999,92.05741433,9.46,'11111222,11111222,11111222' 
TABS,ioos:station:wmo:42043:1,2006-06-16T19:00:00Z,28.9818,-94.9186,4.0,6.096433384,92.63284963,7.84,'11111222,11111222,11111222' 
TABS,ioos:station:wmo:42043:1,2006-06-16T19:30:00Z,28.9818,-94.9186,4.0,8.057207953,99.35750569,10.27,'11111222,11111222,11111222' 
TABS,ioos:station:wmo:42043:1,2006-06-16T20:00:00Z,28.9818,-94.9186,4.0,7.676262111,112.9245361,10.25,'11111222,11111222,11111222' 
TABS,ioos:station:wmo:42043:1,2006-06-16T20:30:00Z,28.9818,-94.9186,4.0,5.145337695,95.68884033,6.64,'11111222,11111222,11111222' 
TABS,ioos:station:wmo:42043:1,2006-06-16T21:00:00Z,28.9818,-94.9186,4.0,6.772946183,118.0031758,8.98,'11111222,11111222,11111222' 
TABS,ioos:station:wmo:42043:1,2006-06-16T21:30:00Z,28.9818,-94.9186,4.0,4.229657197,96.78937962,6.53,'11111222,11111222,11111222' 
TABS,ioos:station:wmo:42043:1,2006-06-16T22:00:00Z,28.9818,-94.9186,4.0,5.684663578,102.4964027,7.04,'11111222,11111222,11111222' 
TABS,ioos:station:wmo:42043:1,2006-06-16T22:30:00Z,28.9818,-94.9186,4.0,7.005319407,98.95176657,9.15,'11111222,11111222,11111222' 
TABS,ioos:station:wmo:42043:1,2006-06-16T23:00:00Z,28.9818,-94.9186,4.0,6.283247568,94.93065214,7.9,'11111222,11111222,11111222' 
TABS,ioos:station:wmo:42043:1,2006-06-16T23:30:00Z,28.9818,-94.9186,4.0,6.092946742,98.87525251,7.97,'11111222,11111222,11111222' 
TABS,ioos:station:wmo:42043:1,2006-06-17T00:00:00Z,28.9818,-94.9186,4.0,6.852298884,106.7957328,8.59,'11111222,11111222,11111222' 
TABS,ioos:station:wmo:42043:1,2006-06-17T00:30:00Z,28.9818,-94.9186,4.0,7.625077049,101.5755827,9.74,'11111222,11111222,11111222' 
TABS,ioos:station:wmo:42043:1,2006-06-17T01:00:00Z,28.9818,-94.9186,4.0,7.925906888,113.654579,10.2,'11111222,11111222,11111222' 
TABS,ioos:station:wmo:42043:1,2006-06-17T01:30:00Z,28.9818,-94.9186,4.0,7.780231359,109.3668811,10.53,'11111222,11111222,11111222' 
TABS,ioos:station:wmo:42043:1,2006-06-17T02:00:00Z,28.9818,-94.9186,4.0,7.209438258,128.0147212,10.15,'11111222,11111222,11111222' 
TABS,ioos:station:wmo:42043:1,2006-06-17T02:30:00Z,28.9818,-94.9186,4.0,8.502452587,154.2790731,10.87,'11111222,11111222,11111222' 
TABS,ioos:station:wmo:42043:1,2006-06-17T03:00:00Z,28.9818,-94.9186,4.0,8.865077552,152.452446,11.17,'11111222,11111222,11111222' 
TABS,ioos:station:wmo:42043:1,2006-06-17T03:30:00Z,28.9818,-94.9186,4.0,8.63575127,153.2275219,10.84,'11111222,11111222,11111222' 
TABS,ioos:station:wmo:42043:1,2006-06-17T04:00:00Z,28.9818,-94.9186,4.0,8.858893836,155.1709219,10.98,'11111222,11111222,11111222' 
TABS,ioos:station:wmo:42043:1,2006-06-17T04:30:00Z,28.9818,-94.9186,4.0,8.505274834,160.3509638,11.13,'11111222,11111222,11111222' 
TABS,ioos:station:wmo:42043:1,2006-06-17T05:00:00Z,28.9818,-94.9186,4.0,8.911520633,159.368963,11.21,'11111222,11111222,11111222' 
TABS,ioos:station:wmo:42043:1,2006-06-17T05:30:00Z,28.9818,-94.9186,4.0,9.534201592,164.1126345,12.37,'11111222,11111222,11111222' 
TABS,ioos:station:wmo:42043:1,2006-06-17T06:00:00Z,28.9818,-94.9186,4.0,9.318825033,163.6072387,13.1,'11111222,11111222,11111222' 
TABS,ioos:station:wmo:42043:1,2006-06-17T06:30:00Z,28.9818,-94.9186,4.0,9.625268827,163.5233676,12.36,'11111222,11111222,11111222' 
TABS,ioos:station:wmo:42043:1,2006-06-17T07:00:00Z,28.9818,-94.9186,4.0,9.493181764,165.4809361,13.18,'11111222,11111222,11111222' 
TABS,ioos:station:wmo:42043:1,2006-06-17T07:30:00Z,28.9818,-94.9186,4.0,9.977705147,163.1635004,12.84,'11111222,11111222,11111222' 
TABS,ioos:station:wmo:42043:1,2006-06-17T08:00:00Z,28.9818,-94.9186,4.0,9.276561863,163.4015757,11.59,'11111222,11111222,11111222' 
TABS,ioos:station:wmo:42043:1,2006-06-17T08:30:00Z,28.9818,-94.9186,4.0,9.040602856,167.6089138,11.39,'11111222,11111222,11111222' 
TABS,ioos:station:wmo:42043:1,2006-06-17T09:00:00Z,28.9818,-94.9186,4.0,9.329442641,169.0636784,11.51,'11111222,11111222,11111222' 
TABS,ioos:station:wmo:42043:1,2006-06-17T09:30:00Z,28.9818,-94.9186,4.0,8.229714454,169.4276243,10.89,'11111222,11111222,11111222' 
TABS,ioos:station:wmo:42043:1,2006-06-17T10:00:00Z,28.9818,-94.9186,4.0,9.129523536,169.970441,11.76,'11111222,11111222,11111222' 
TABS,ioos:station:wmo:42043:1,2006-06-17T10:30:00Z,28.9818,-94.9186,4.0,8.729954181,171.768029,11.34,'11111222,11111222,11111222' 
TABS,ioos:station:wmo:42043:1,2006-06-17T11:00:00Z,28.9818,-94.9186,4.0,8.636168132,171.0069105,10.98,'11111222,11111222,11111222' 
TABS,ioos:station:wmo:42043:1,2006-06-17T11:30:00Z,28.9818,-94.9186,4.0,8.252660177,168.9626201,10.75,'11111222,11111222,11111222' 
TABS,ioos:station:wmo:42043:1,2006-06-17T12:00:00Z,28.9818,-94.9186,4.0,7.528060839,172.2899074,9.76,'11111222,11111222,11111222' 
TABS,ioos:station:wmo:42043:1,2006-06-17T12:30:00Z,28.9818,-94.9186,4.0,7.965481781,173.874504,10.04,'11111222,11111222,11111222' 
TABS,ioos:station:wmo:42043:1,2006-06-17T13:00:00Z,28.9818,-94.9186,4.0,7.847713043,173.0472692,10.14,'11111222,11111222,11111222' 
TABS,ioos:station:wmo:42043:1,2006-06-17T13:30:00Z,28.9818,-94.9186,4.0,8.059292773,173.6600335,9.85,'11111222,11111222,11111222' 
TABS,ioos:station:wmo:42043:1,2006-06-17T14:00:00Z,28.9818,-94.9186,4.0,6.759541405,165.6967454,8.96,'11111222,11111222,11111222' 
TABS,ioos:station:wmo:42043:1,2006-06-17T14:30:00Z,28.9818,-94.9186,4.0,6.466969924,174.7656876,8.58,'11111222,11111222,11111222' 
TABS,ioos:station:wmo:42043:1,2006-06-17T15:00:00Z,28.9818,-94.9186,4.0,5.956786046,165.6140715,7.64,'11111222,11111222,11111222' 
TABS,ioos:station:wmo:42043:1,2006-06-17T15:30:00Z,28.9818,-94.9186,4.0,6.343224732,172.5727141,8.2,'11111222,11111222,11111222' 
TABS,ioos:station:wmo:42043:1,2006-06-17T16:00:00Z,28.9818,-94.9186,4.0,7.269346601,175.8191387,10.08,'11111222,11111222,11111222' 
TABS,ioos:station:wmo:42043:1,2006-06-17T16:30:00Z,28.9818,-94.9186,4.0,7.014556294,171.6390975,8.77,'11111222,11111222,11111222' 
TABS,ioos:station:wmo:42043:1,2006-06-17T17:00:00Z,28.9818,-94.9186,4.0,6.666588333,175.9574663,8.44,'11111222,11111222,11111222' 
TABS,ioos:station:wmo:42043:1,2006-06-17T17:30:00Z,28.9818,-94.9186,4.0,8.296800588,173.9116965,11.25,'11111222,11111222,11111222' 
TABS,ioos:station:wmo:42043:1,2006-06-17T18:00:00Z,28.9818,-94.9186,4.0,6.157808052,177.1145796,8.21,'11111222,11111222,11111222' 
TABS,ioos:station:wmo:42043:1,2006-06-17T18:30:00Z,28.9818,-94.9186,4.0,5.962348531,169.3687738,7.58,'11111222,11111222,11111222' 
TABS,ioos:station:wmo:42043:1,2006-06-17T19:00:00Z,28.9818,-94.9186,4.0,6.270853211,171.3791074,7.99,'11111222,11111222,11111222' 
TABS,ioos:station:wmo:42043:1,2006-06-17T19:30:00Z,28.9818,-94.9186,4.0,5.889388763,173.3699587,7.33,'11111222,11111222,11111222' 
TABS,ioos:station:wmo:42043:1,2006-06-17T20:00:00Z,28.9818,-94.9186,4.0,5.629369414,166.334281,7.41,'11111222,11111222,11111222' 
TABS,ioos:station:wmo:42043:1,2006-06-17T20:30:00Z,28.9818,-94.9186,4.0,6.081159429,161.8930454,8.12,'11111222,11111222,11111222' 
TABS,ioos:station:wmo:42043:1,2006-06-17T21:00:00Z,28.9818,-94.9186,4.0,6.618708333,161.3189322,8.14,'11111222,11111222,11111222' 
TABS,ioos:station:wmo:42043:1,2006-06-17T21:30:00Z,28.9818,-94.9186,4.0,6.334106093,161.3078622,8.05,'11111222,11111222,11111222' 
TABS,ioos:station:wmo:42043:1,2006-06-17T22:00:00Z,28.9818,-94.9186,4.0,7.373601562,163.7773416,9.2,'11111222,11111222,11111222' 
TABS,ioos:station:wmo:42043:1,2006-06-17T22:30:00Z,28.9818,-94.9186,4.0,7.083141958,163.1770392,8.89,'11111222,11111222,11111222' 
TABS,ioos:station:wmo:42043:1,2006-06-17T23:00:00Z,28.9818,-94.9186,4.0,8.106108808,163.4431778,10.41,'11111222,11111222,11111222' 
TABS,ioos:station:wmo:42043:1,2006-06-17T23:30:00Z,28.9818,-94.9186,4.0,9.219815616,165.1048556,12.1,'11111222,11111222,11111222' 
TABS,ioos:station:wmo:42043:1,2006-06-18T00:00:00Z,28.9818,-94.9186,4.0,10.42915625,166.2438135,13.08,'11111222,11111222,11111222' 
TABS,ioos:station:wmo:42043:1,2006-06-18T00:30:00Z,28.9818,-94.9186,4.0,9.352218988,166.1423052,12.01,'11111222,11111222,11111222' 
TABS,ioos:station:wmo:42043:1,2006-06-18T01:00:00Z,28.9818,-94.9186,4.0,8.605951429,165.1889087,10.81,'11111222,11111222,11111222' 
TABS,ioos:station:wmo:42043:1,2006-06-18T01:30:00Z,28.9818,-94.9186,4.0,8.714315808,167.8779291,11.13,'11111222,11111222,11111222' 
TABS,ioos:station:wmo:42043:1,2006-06-18T02:00:00Z,28.9818,-94.9186,4.0,8.037791985,166.3270633,9.87,'11111222,11111222,11111222' 
TABS,ioos:station:wmo:42043:1,2006-06-18T02:30:00Z,28.9818,-94.9186,4.0,7.421623812,163.8851817,10.55,'11111222,11111222,11111222' 
TABS,ioos:station:wmo:42043:1,2006-06-18T03:00:00Z,28.9818,-94.9186,4.0,8.578123338,168.6379079,11.02,'11111222,11111222,11111222' 
TABS,ioos:station:wmo:42043:1,2006-06-18T03:30:00Z,28.9818,-94.9186,4.0,8.595586077,166.2711688,10.53,'11111222,11111222,11111222' 
TABS,ioos:station:wmo:42043:1,2006-06-18T04:00:00Z,28.9818,-94.9186,4.0,8.129138946,169.0082263,10.28,'11111222,11111222,11111222' 
TABS,ioos:station:wmo:42043:1,2006-06-18T04:30:00Z,28.9818,-94.9186,4.0,7.935370187,167.2599811,9.97,'11111222,11111222,11111222' 
TABS,ioos:station:wmo:42043:1,2006-06-18T05:00:00Z,28.9818,-94.9186,4.0,7.702032199,169.3760103,9.78,'11111222,11111222,11111222' 
TABS,ioos:station:wmo:42043:1,2006-06-18T05:30:00Z,28.9818,-94.9186,4.0,8.103338818,170.8401366,10.85,'11111222,11111222,11111222' 
TABS,ioos:station:wmo:42043:1,2006-06-18T06:00:00Z,28.9818,-94.9186,4.0,7.04006392,173.8847212,9.47,'11111222,11111222,11111222' 
TABS,ioos:station:wmo:42043:1,2006-06-18T06:30:00Z,28.9818,-94.9186,4.0,7.723651986,173.9057955,9.98,'11111222,11111222,11111222' 
TABS,ioos:station:wmo:42043:1,2006-06-18T07:00:00Z,28.9818,-94.9186,4.0,6.790228273,174.5918909,9.33,'11111222,11111222,11111222' 
TABS,ioos:station:wmo:42043:1,2006-06-18T07:30:00Z,28.9818,-94.9186,4.0,7.170564831,172.5481504,9.17,'11111222,11111222,11111222' 
TABS,ioos:station:wmo:42043:1,2006-06-18T08:00:00Z,28.9818,-94.9186,4.0,6.972065691,176.628932,8.95,'11111222,11111222,11111222' 
TABS,ioos:station:wmo:42043:1,2006-06-18T08:30:00Z,28.9818,-94.9186,4.0,7.190695377,179.2033822,9.17,'11111222,11111222,11111222' 
TABS,ioos:station:wmo:42043:1,2006-06-18T09:00:00Z,28.9818,-94.9186,4.0,7.881243557,181.0180463,10.37,'11111222,11111222,11111222' 
TABS,ioos:station:wmo:42043:1,2006-06-18T09:30:00Z,28.9818,-94.9186,4.0,7.850636917,180.7300518,9.7,'11111222,11111222,11111222' 
TABS,ioos:station:wmo:42043:1,2006-06-18T10:00:00Z,28.9818,-94.9186,4.0,6.980028653,180.1643809,8.85,'11111222,11111222,11111222' 
TABS,ioos:station:wmo:42043:1,2006-06-18T10:30:00Z,28.9818,-94.9186,4.0,7.229993084,183.0129909,9.02,'11111222,11111222,11111222' 
TABS,ioos:station:wmo:42043:1,2006-06-18T11:00:00Z,28.9818,-94.9186,4.0,7.424318151,186.2636864,9.34,'11111222,11111222,11111222' 
TABS,ioos:station:wmo:42043:1,2006-06-18T11:30:00Z,28.9818,-94.9186,4.0,7.662329933,191.0608153,10.0,'11111222,11111222,11111222' 
TABS,ioos:station:wmo:42043:1,2006-06-18T12:00:00Z,28.9818,-94.9186,4.0,7.038465742,202.5574043,9.21,'11111222,11111222,11111222' 
TABS,ioos:station:wmo:42043:1,2006-06-18T12:30:00Z,28.9818,-94.9186,4.0,7.455736047,208.6964669,9.49,'11111222,11111222,11111222' 
TABS,ioos:station:wmo:42043:1,2006-06-18T13:00:00Z,28.9818,-94.9186,4.0,6.839130062,212.1564834,9.19,'11111222,11111222,11111222' 
TABS,ioos:station:wmo:42043:1,2006-06-18T13:30:00Z,28.9818,-94.9186,4.0,5.758767229,217.8052967,7.53,'11111222,11111222,11111222' 
TABS,ioos:station:wmo:42043:1,2006-06-18T14:00:00Z,28.9818,-94.9186,4.0,6.116485919,229.7747372,8.74,'11111222,11111222,11111222' 
TABS,ioos:station:wmo:42043:1,2006-06-18T14:30:00Z,28.9818,-94.9186,4.0,7.425476416,202.9049255,10.05,'11111222,11111222,11111222' 
TABS,ioos:station:wmo:42043:1,2006-06-18T15:00:00Z,28.9818,-94.9186,4.0,5.856090846,220.8454909,8.13,'11111222,11111222,11111222' 
TABS,ioos:station:wmo:42043:1,2006-06-18T15:30:00Z,28.9818,-94.9186,4.0,6.722975532,200.9152982,8.76,'11111222,11111222,11111222' 
TABS,ioos:station:wmo:42043:1,2006-06-18T16:00:00Z,28.9818,-94.9186,4.0,6.463226748,200.0893031,8.04,'11111222,11111222,11111222' 
TABS,ioos:station:wmo:42043:1,2006-06-18T16:30:00Z,28.9818,-94.9186,4.0,5.713956598,192.4311035,7.21,'11111222,11111222,11111222' 
TABS,ioos:station:wmo:42043:1,2006-06-18T17:00:00Z,28.9818,-94.9186,4.0,6.028100862,172.7573187,8.01,'11111222,11111222,11111222' 
TABS,ioos:station:wmo:42043:1,2006-06-18T17:30:00Z,28.9818,-94.9186,4.0,7.021395873,153.8001569,8.86,'11111222,11111222,11111222' 
TABS,ioos:station:wmo:42043:1,2006-06-18T18:00:00Z,28.9818,-94.9186,4.0,7.802262492,171.6728074,9.77,'11111222,11111222,11111222' 
TABS,ioos:station:wmo:42043:1,2006-06-18T18:30:00Z,28.9818,-94.9186,4.0,7.309370698,182.9017534,9.63,'11111222,11111222,11111222' 
TABS,ioos:station:wmo:42043:1,2006-06-18T19:00:00Z,28.9818,-94.9186,4.0,5.049534632,210.068723,6.47,'11111222,11111222,11111222' 
TABS,ioos:station:wmo:42043:1,2006-06-18T19:30:00Z,28.9818,-94.9186,4.0,4.722001694,216.8214868,5.91,'11111222,11111222,11111222' 
TABS,ioos:station:wmo:42043:1,2006-06-18T20:00:00Z,28.9818,-94.9186,4.0,4.495887009,207.9901705,5.54,'11111222,11111222,11111222' 
TABS,ioos:station:wmo:42043:1,2006-06-18T20:30:00Z,28.9818,-94.9186,4.0,4.684794553,209.6843438,5.86,'11111222,11111222,11111222' 
TABS,ioos:station:wmo:42043:1,2006-06-18T21:00:00Z,28.9818,-94.9186,4.0,4.729450285,209.6548639,6.48,'11111222,11111222,11111222' 
TABS,ioos:station:wmo:42043:1,2006-06-18T21:30:00Z,28.9818,-94.9186,4.0,5.585740775,201.9729982,6.74,'11111222,11111222,11111222' 
TABS,ioos:station:wmo:42043:1,2006-06-18T22:00:00Z,28.9818,-94.9186,4.0,5.23742303,207.396931,6.71,'11111222,11111222,11111222' 
TABS,ioos:station:wmo:42043:1,2006-06-18T22:30:00Z,28.9818,-94.9186,4.0,5.626091005,206.1553013,7.03,'11111222,11111222,11111222' 
TABS,ioos:station:wmo:42043:1,2006-06-18T23:00:00Z,28.9818,-94.9186,4.0,5.31048962,197.3091407,6.98,'11111222,11111222,11111222' 
TABS,ioos:station:wmo:42043:1,2006-06-18T23:30:00Z,28.9818,-94.9186,4.0,5.150621322,189.4990861,6.19,'11111222,11111222,11111222' 
TABS,ioos:station:wmo:42043:1,2006-06-19T00:00:00Z,28.9818,-94.9186,4.0,4.988316349,192.5040723,6.5,'11111222,11111222,11111222' 
TABS,ioos:station:wmo:42043:1,2006-06-19T00:30:00Z,28.9818,-94.9186,4.0,5.86689867,192.4018773,7.38,'11111222,11111222,11111222' 
TABS,ioos:station:wmo:42043:1,2006-06-19T01:00:00Z,28.9818,-94.9186,4.0,5.677200014,196.264414,6.87,'11111222,11111222,11111222' 
TABS,ioos:station:wmo:42043:1,2006-06-19T01:30:00Z,28.9818,-94.9186,4.0,5.066635965,199.3649264,6.26,'11111222,11111222,11111222' 
TABS,ioos:station:wmo:42043:1,2006-06-19T02:00:00Z,28.9818,-94.9186,4.0,4.598108307,198.9079718,5.86,'11111222,11111222,11111222' 
TABS,ioos:station:wmo:42043:1,2006-06-19T02:30:00Z,28.9818,-94.9186,4.0,4.559265292,196.56701,5.95,'11111222,11111222,11111222' 
TABS,ioos:station:wmo:42043:1,2006-06-19T03:00:00Z,28.9818,-94.9186,4.0,4.332320394,198.4351162,5.62,'11111222,11111222,11111222' 
TABS,ioos:station:wmo:42043:1,2006-06-19T03:30:00Z,28.9818,-94.9186,4.0,4.122159628,208.8657419,5.26,'11111222,11111222,11111222' 
TABS,ioos:station:wmo:42043:1,2006-06-19T04:00:00Z,28.9818,-94.9186,4.0,5.627654929,188.8934226,8.12,'11111222,11111222,11111222' 
TABS,ioos:station:wmo:42043:1,2006-06-19T04:30:00Z,28.9818,-94.9186,4.0,6.676301371,192.0170187,8.71,'11111222,11111222,11111222' 
TABS,ioos:station:wmo:42043:1,2006-06-19T05:00:00Z,28.9818,-94.9186,4.0,6.524668574,195.7405118,8.31,'11111222,11111222,11111222' 
TABS,ioos:station:wmo:42043:1,2006-06-19T05:30:00Z,28.9818,-94.9186,4.0,6.560739288,186.3886079,8.12,'11111222,11111222,11111222' 
TABS,ioos:station:wmo:42043:1,2006-06-19T06:00:00Z,28.9818,-94.9186,4.0,7.110365673,189.1445726,8.63,'11111222,11111222,11111222' 
TABS,ioos:station:wmo:42043:1,2006-06-19T06:30:00Z,28.9818,-94.9186,4.0,7.629764085,186.547709,9.5,'11111222,11111222,11111222' 
TABS,ioos:station:wmo:42043:1,2006-06-19T07:00:00Z,28.9818,-94.9186,4.0,7.278804847,196.1942559,9.41,'11111222,11111222,11111222' 
TABS,ioos:station:wmo:42043:1,2006-06-19T07:30:00Z,28.9818,-94.9186,4.0,7.558002382,203.1390223,9.27,'11111222,11111222,11111222' 
TABS,ioos:station:wmo:42043:1,2006-06-19T08:00:00Z,28.9818,-94.9186,4.0,8.284714841,199.90055,10.33,'11111222,11111222,11111222' 
TABS,ioos:station:wmo:42043:1,2006-06-19T08:30:00Z,28.9818,-94.9186,4.0,8.069919454,205.2315064,10.69,'11111222,11111222,11111222' 
TABS,ioos:station:wmo:42043:1,2006-06-19T09:00:00Z,28.9818,-94.9186,4.0,7.974014046,204.6046663,9.89,'11111222,11111222,11111222' 
TABS,ioos:station:wmo:42043:1,2006-06-19T09:30:00Z,28.9818,-94.9186,4.0,8.605004358,207.250094,11.3,'11111222,11111222,11111222' 
TABS,ioos:station:wmo:42043:1,2006-06-19T10:00:00Z,28.9818,-94.9186,4.0,8.719862384,210.1525235,10.72,'11111222,11111222,11111222' 
TABS,ioos:station:wmo:42043:1,2006-06-19T10:30:00Z,28.9818,-94.9186,4.0,9.245890979,214.8246182,11.7,'11111222,11111222,11111222' 
TABS,ioos:station:wmo:42043:1,2006-06-19T11:00:00Z,28.9818,-94.9186,4.0,10.97503075,210.2565769,14.66,'11111222,11111222,11111222' 
TABS,ioos:station:wmo:42043:1,2006-06-19T11:30:00Z,28.9818,-94.9186,4.0,9.022117268,217.1621497,11.8,'11111222,11111222,11111222' 
TABS,ioos:station:wmo:42043:1,2006-06-19T12:00:00Z,28.9818,-94.9186,4.0,8.476060406,219.9268573,11.05,'11111222,11111222,11111222' 
TABS,ioos:station:wmo:42043:1,2006-06-19T12:30:00Z,28.9818,-94.9186,4.0,8.287303542,224.9023312,10.49,'11111222,11111222,11111222' 
TABS,ioos:station:wmo:42043:1,2006-06-19T13:00:00Z,28.9818,-94.9186,4.0,9.250324319,218.9888209,11.88,'11111222,11111222,11111222' 
TABS,ioos:station:wmo:42043:1,2006-06-19T13:30:00Z,28.9818,-94.9186,4.0,8.586180757,219.6604418,11.53,'11111222,11111222,11111222' 
TABS,ioos:station:wmo:42043:1,2006-06-19T14:00:00Z,28.9818,-94.9186,4.0,8.803965016,218.0805881,11.48,'11111222,11111222,11111222' 